Location: Bletchingley
(51.2333°N, 0.1000°W)
Time: 04:56:34
(UTC+00:00)

CZ-4 R/B - Pass Details

Date: 18 September 2020
Orbit: 530 x 600 km, 97.7° (Epoch: 20 October)

Event Time Altitude Azimuth Distance (km) Brightness Sun altitude
Rises 18:45:07 0° 178° (S) 2,838 4.8 -6.8°
Reaches altitude 10° 18:47:20 10° 183° (S) 1,940 4.0 -7.1°
Maximum altitude 18:51:28 52° 260° (W) 751 2.5 -7.7°
Drops below altitude 10° 18:55:35 10° 337° (NNW) 1,941 4.6 -8.4°
Sets 18:57:48 0° 343° (NNW) 2,840 5.4 -8.7°
